| time (UTC) | temp F | wind direction | speed MPH | gust MPH | rain 1hr in | rain 24hr in | rain mn in | humidity % | barometer mb |
| 20260503172359 | 71 | 257 | 2.0 | 2.0 | 0.00 | 0.00 | 0.00 | 56 | 1013.6 |
| 20260503170855 | 69 | 338 | 2.0 | 2.0 | 0.00 | 0.00 | 0.00 | 60 | 1013.6 |
| 20260503150837 | 58 | 347 | 0.0 | 1.0 | 0.00 | 0.00 | 0.00 | 81 | 1014.0 |
| 20260503130811 | 50 | 158 | 0.0 | 0.0 | 0.00 | 0.00 | 0.00 | 92 | 1013.6 |
| 20260503110801 | 56 | 60 | 3.0 | 3.0 | 0.00 | 0.00 | 0.00 | 81 | 1013.8 |
| 20260503080726 | 55 | 62 | 2.0 | 2.0 | 0.00 | 0.00 | 0.00 | 94 | 1014.7 |
| 20260503072220 | 55 | 44 | 0.0 | 1.0 | 0.00 | 0.00 | 0.00 | 92 | 1014.5 |
| 20260503070716 | 56 | 192 | 0.0 | 0.0 | 0.00 | 0.00 | 0.00 | 91 | 1014.6 |
| 20260503053656 | 60 | 206 | 3.0 | 3.0 | 0.00 | 0.00 | 0.00 | 81 | 1014.7 |
| 20260503052153 | 60 | 55 | 0.0 | 1.0 | 0.00 | 0.00 | 0.00 | 82 | 1014.3 |
| 20260503050649 | 61 | 155 | 0.0 | 0.0 | 0.00 | 0.00 | 0.00 | 82 | 1014.4 |
| 20260503045146 | 61 | 351 | 2.0 | 2.0 | 0.00 | 0.00 | 0.00 | 81 | 1014.5 |
| 20260503043642 | 63 | 48 | 2.0 | 2.0 | 0.00 | 0.00 | 0.00 | 77 | 1014.6 |
| 20260503042138 | 64 | 65 | 4.0 | 4.0 | 0.00 | 0.00 | 0.00 | 76 | 1014.5 |
| 20260503040635 | 63 | 51 | 3.0 | 3.0 | 0.00 | 0.00 | 0.00 | 77 | 1014.8 |
| 20260503035133 | 62 | 68 | 2.0 | 2.0 | 0.00 | 0.01 | 0.01 | 79 | 1014.6 |
| 20260503033630 | 62 | 123 | 0.0 | 0.0 | 0.00 | 0.01 | 0.01 | 80 | 1014.7 |
| 20260503032130 | 64 | 158 | 0.0 | 0.0 | 0.00 | 0.01 | 0.01 | 75 | 1014.8 |
| 20260503030626 | 64 | 155 | 4.0 | 4.0 | 0.00 | 0.01 | 0.01 | 76 | 1014.8 |
| 20260503025124 | 65 | 173 | 2.0 | 2.0 | 0.00 | 0.01 | 0.01 | 73 | 1014.6 |
| 20260503023620 | 66 | 187 | 1.0 | 1.0 | 0.00 | 0.01 | 0.01 | 69 | 1014.7 |
| 20260503022120 | 67 | 149 | 8.0 | 8.0 | 0.00 | 0.01 | 0.01 | 67 | 1014.3 |
| 20260503020617 | 67 | 232 | 3.0 | 4.0 | 0.00 | 0.01 | 0.01 | 67 | 1014.1 |
| 20260503015113 | 68 | 222 | 2.0 | 3.0 | 0.00 | 0.01 | 0.01 | 65 | 1013.7 |
| 20260503013610 | 69 | 281 | 1.0 | 1.0 | 0.00 | 0.01 | 0.01 | 61 | 1013.6 |
| 20260503012107 | 69 | 221 | 0.0 | 1.0 | 0.00 | 0.01 | 0.01 | 62 | 1013.7 |
| 20260503010602 | 69 | 243 | 1.0 | 1.0 | 0.00 | 0.01 | 0.01 | 62 | 1013.8 |
| 20260503005100 | 70 | 260 | 0.0 | 0.0 | 0.00 | 0.01 | 0.01 | 62 | 1013.7 |
| 20260503003556 | 68 | 342 | 1.0 | 1.0 | 0.00 | 0.01 | 0.01 | 63 | 1013.7 |
| 20260503002053 | 70 | 319 | 0.0 | 1.0 | 0.00 | 0.01 | 0.01 | 60 | 1013.7 |
| 20260503000550 | 69 | 301 | 2.0 | 2.0 | 0.00 | 0.01 | 0.01 | 61 | 1013.7 |
| 20260502235046 | 69 | 311 | 3.0 | 3.0 | 0.00 | 0.01 | 0.01 | 60 | 1013.7 |
| 20260502233546 | 69 | 326 | 4.0 | 4.0 | 0.00 | 0.01 | 0.01 | 60 | 1013.7 |
| 20260502232042 | 68 | 213 | 0.0 | 0.0 | 0.00 | 0.01 | 0.01 | 60 | 1014.0 |
| 20260502230541 | 70 | 340 | 4.0 | 6.0 | 0.00 | 0.01 | 0.01 | 60 | 1014.1 |
| 20260502225037 | 69 | 346 | 1.0 | 2.0 | 0.00 | 0.01 | 0.01 | 60 | 1014.1 |
| 20260502223534 | 68 | 285 | 0.0 | 1.0 | 0.00 | 0.01 | 0.01 | 62 | 1014.5 |
| 20260502222031 | 67 | 49 | 3.0 | 3.0 | 0.00 | 0.01 | 0.01 | 64 | 1014.6 |
| 20260502220531 | 66 | 343 | 1.0 | 2.0 | 0.00 | 0.01 | 0.01 | 64 | 1015.1 |
| 20260502215028 | 65 | 74 | 3.0 | 3.0 | 0.00 | 0.01 | 0.01 | 66 | 1015.2 |
| 20260502213525 | 65 | 280 | 1.0 | 2.0 | 0.00 | 0.01 | 0.01 | 68 | 1015.4 |
| 20260502212025 | 64 | 272 | 3.0 | 3.0 | 0.00 | 0.01 | 0.01 | 67 | 1015.5 |
| 20260502210521 | 63 | 259 | 0.0 | 1.0 | 0.00 | 0.01 | 0.01 | 70 | 1015.6 |
| 20260502205017 | 63 | 201 | 3.0 | 3.0 | 0.00 | 0.01 | 0.01 | 68 | 1016.0 |
| 20260502203515 | 62 | 173 | 2.0 | 3.0 | 0.00 | 0.01 | 0.01 | 72 | 1016.3 |
| 20260502202012 | 60 | 256 | 0.0 | 1.0 | 0.00 | 0.01 | 0.01 | 74 | 1016.4 |
| 20260502200512 | 61 | 237 | 1.0 | 2.0 | 0.00 | 0.01 | 0.01 | 74 | 1016.6 |
| 20260502195009 | 59 | 168 | 0.0 | 0.0 | 0.00 | 0.01 | 0.01 | 76 | 1016.8 |
| 20260502193506 | 57 | 234 | 2.0 | 3.0 | 0.00 | 0.01 | 0.01 | 78 | 1016.8 |
| 20260502192001 | 57 | 316 | 3.0 | 3.0 | 0.00 | 0.01 | 0.01 | 80 | 1017.0 |
| 20260502190459 | 56 | 270 | 2.0 | 2.0 | 0.00 | 0.01 | 0.01 | 83 | 1017.0 |
| 20260502184954 | 56 | 174 | 2.0 | 3.0 | 0.00 | 0.01 | 0.01 | 80 | 1017.2 |
| 20260502183454 | 54 | 332 | 4.0 | 6.0 | 0.00 | 0.01 | 0.01 | 84 | 1017.1 |
| 20260502181954 | 53 | 336 | 3.0 | 3.0 | 0.00 | 0.01 | 0.01 | 86 | 1017.4 |
| 20260502180453 | 54 | 11 | 1.0 | 2.0 | 0.00 | 0.01 | 0.01 | 85 | 1017.5 |